Regional Weather Roundup
Issued by NWS

Home | Current Version | Previous Version | Text Only | Print | Product List | Glossary Off
Versions: 1 2 3 4 5 6 7 8 9 10 11 12 13 14 15 16 17 18 19 20 21 22 23 24 25 26 27 28 29 30 31 32 33 34 35 36 37 38 39 40 41 42 43 44 45 46 47 48 49 50

000
ASUS45 KABQ 241001
RWRNM
NEW MEXICO REGIONAL WEATHER ROUNDUP
NATIONAL WEATHER SERVICE ALBUQUERQUE NM
400 AM MDT MON APR 24 2017

NOTE: "FAIR" MEANS FEW OR NO CLOUDS BELOW 12,000 FEET AGL WITH NO
       SIGNIFICANT WEATHER OR OBSTRUCTIONS TO VISION.

      THIS PRODUCT IS RELEASED AS TWO VERSIONS.  ONE VERSION NEAR
      THE TOP OF THE HOUR CONTAINING PRELIMINARY DATA FROM ALBUQUERQUE
      AND OTHER STATIONS.  A FINAL VERSION WITH ADDITIONAL DATA IS
      ISSUED ABOUT 10 MINUTES AFTER THE HOUR.

NMZ501-503-504-510>518-241100-
NORTHWEST PLATEAU/NORTHCENTRAL MOUNTAINS

CITY           SKY/WX    TMP DP  RH WIND       PRES   REMARKS
FARMINGTON     FAIR      56  32  40 SW13      29.82R
LOS ALAMOS     FAIR      56  16  20 SW5       29.95S
SANTA FE       FAIR      47  29  49 E7        29.91S
TAOS             N/A     45  21  39 S7        29.91F
ANGEL FIRE     FAIR      49  18  28 SW22G31   29.94F

$$
NMZ402-403-502-505>509-241100-
WESTCENTRAL MOUNTAINS/SOUTHWEST MOUNTAINS

CITY           SKY/WX    TMP DP  RH WIND       PRES   REMARKS
GALLUP         FAIR      47  19  33 SW3       29.93F
GRANTS         FAIR      50  18  27 SE3       29.96R
SILVER CITY    FAIR      47  28  46 N6        29.94F

$$
NMZ407-409-411-412-241100-
SOUTHERN DESERTS

CITY           SKY/WX    TMP DP  RH WIND       PRES   REMARKS
DEMING         FAIR      50  31  48 W6        29.89S
LAS CRUCES     FAIR      51  32  47 W7        29.90R
HOLLOMAN AFB   FAIR      60  33  35 S9        29.89F
ALAMOGORDO     FAIR      64  39  39 S16       29.86F
T OR C         FAIR      58  29  33 W6        29.86F

$$
NMZ519>523-241100-
CENTRAL VALLEYS/CENTRAL HIGHLANDS

CITY           SKY/WX    TMP DP  RH WIND       PRES   REMARKS
ALBUQUERQUE    FAIR      55  31  39 SE7       29.90R
MORIARTY ARPT  FAIR      41  30  65 E5        29.94R
CLINES CORNERS FAIR      52  27  38 SW22      29.95F
BELEN          FAIR      52  30  43 SW7       29.89R
SOCORRO        FAIR      58  29  33 W10       29.87S

$$
NMZ524>526-539-540-241100-
SOUTHCENTRAL MOUNTAINS

CITY           SKY/WX    TMP DP  RH WIND       PRES   REMARKS
RUIDOSO        NOT AVBL

$$
NMZ527>531-241100-
NORTHEAST HIGHLANDS/NORTHEAST PLAINS

CITY           SKY/WX    TMP DP  RH WIND       PRES   REMARKS
LAS VEGAS      FAIR      43  27  53 S14       29.91F
RATON          FAIR      41  29  62 SW9       29.82F
CLAYTON        FAIR      50  32  50 SW12      29.77F

$$
NMZ532>537-241100-
EASTCENTRAL PLAINS

CITY           SKY/WX    TMP DP  RH WIND       PRES   REMARKS
SANTA ROSA     FAIR      44  31  60 CALM      29.85F
TUCUMCARI      FAIR      56  31  38 SW18G24   29.80F
CANNON AFB     FAIR      48  32  53 S9        29.88F
CLOVIS AIRPORT FAIR      45  30  57 S9        29.88S

$$
NMZ028-029-538-241100-
SOUTHEAST PLAINS

CITY           SKY/WX    TMP DP  RH WIND       PRES   REMARKS
ROSWELL        FAIR      54  31  41 S10         N/A
ARTESIA        FAIR      52  32  46 S9        29.85F
CARLSBAD       FAIR      54  33  45 S10       29.84F
HOBBS          FAIR      50  32  50 S5        29.89S


$$




USA.gov is the U.S. government's official web portal to all federal, state and local government web resources and services.